Location: Altavilla Irpina
(41.0000°N, 14.7833°E)
Time: 21:47:19
(UTC+00:00)

Cosmos 1400 Rocket - Pass Details

Date: 19 May 2025
Orbit: 484 x 519 km, 81.1° (Epoch: 15 June)

Event Time Altitude Azimuth Distance (km) Brightness Sun altitude
Exits shadow 19:29:37 - 186° (S) 2,068 5.4 -12.3°
Reaches altitude 10° 19:30:33 10° 186° (S) 1,678 5.0 -12.5°
Maximum altitude 19:34:13 83° 100° (E) 498 2.5 -13.0°
Drops below altitude 10° 19:37:54 10° 11° (N) 1,678 5.7 -13.5°
Sets 19:40:00 0° 11° (N) 2,561 6.7 -13.8°
